owner,sensor,date,latitude,longitude,relative_humidity,qcFlag 
LUMCON,ioos:station:LUMCON:101:1,2011-01-03T15:00:00Z,29.2533,-90.6633,67.0,1111122 
LUMCON,ioos:station:LUMCON:101:1,2011-01-03T16:00:00Z,29.2533,-90.6633,66.3,1111122 
LUMCON,ioos:station:LUMCON:101:1,2011-01-03T17:00:00Z,29.2533,-90.6633,63.4,1111122 
LUMCON,ioos:station:LUMCON:101:1,2011-01-03T18:00:00Z,29.2533,-90.6633,61.2,1111122 
LUMCON,ioos:station:LUMCON:101:1,2011-01-03T20:00:00Z,29.2533,-90.6633,60.7,1111122 
LUMCON,ioos:station:LUMCON:101:1,2011-01-03T21:00:00Z,29.2533,-90.6633,60.8,1111122 
LUMCON,ioos:station:LUMCON:101:1,2011-01-03T22:00:00Z,29.2533,-90.6633,62.5,1111122 
LUMCON,ioos:station:LUMCON:101:1,2011-01-03T23:00:00Z,29.2533,-90.6633,70.0,1111122 
LUMCON,ioos:station:LUMCON:101:1,2011-01-04T00:00:00Z,29.2533,-90.6633,73.8,1111122 
LUMCON,ioos:station:LUMCON:101:1,2011-01-04T01:00:00Z,29.2533,-90.6633,76.2,1111122 
LUMCON,ioos:station:LUMCON:101:1,2011-01-04T02:00:00Z,29.2533,-90.6633,77.3,1111122 
LUMCON,ioos:station:LUMCON:101:1,2011-01-04T04:00:00Z,29.2533,-90.6633,83.2,1111122 
LUMCON,ioos:station:LUMCON:101:1,2011-01-04T07:00:00Z,29.2533,-90.6633,88.0,1111122 
LUMCON,ioos:station:LUMCON:101:1,2011-01-04T08:00:00Z,29.2533,-90.6633,88.0,1111122 
LUMCON,ioos:station:LUMCON:101:1,2011-01-04T09:00:00Z,29.2533,-90.6633,86.8,1111122 
LUMCON,ioos:station:LUMCON:101:1,2011-01-04T11:00:00Z,29.2533,-90.6633,85.7,1111122 
LUMCON,ioos:station:LUMCON:101:1,2011-01-04T12:00:00Z,29.2533,-90.6633,84.0,1111122 
LUMCON,ioos:station:LUMCON:101:1,2011-01-04T13:00:00Z,29.2533,-90.6633,85.7,1111122 
LUMCON,ioos:station:LUMCON:101:1,2011-01-04T14:00:00Z,29.2533,-90.6633,86.4,1111122 
LUMCON,ioos:station:LUMCON:101:1,2011-01-04T17:00:00Z,29.2533,-90.6633,82.1,1111122 
LUMCON,ioos:station:LUMCON:101:1,2011-01-04T18:00:00Z,29.2533,-90.6633,79.6,1111122 
LUMCON,ioos:station:LUMCON:101:1,2011-01-04T19:00:00Z,29.2533,-90.6633,79.6,1111122 
LUMCON,ioos:station:LUMCON:101:1,2011-01-04T20:00:00Z,29.2533,-90.6633,79.7,1111122 
LUMCON,ioos:station:LUMCON:101:1,2011-01-04T21:00:00Z,29.2533,-90.6633,78.7,1111122 
LUMCON,ioos:station:LUMCON:101:1,2011-01-04T22:00:00Z,29.2533,-90.6633,82.3,1111122 
LUMCON,ioos:station:LUMCON:101:1,2011-01-05T00:00:00Z,29.2533,-90.6633,87.8,1111122 
LUMCON,ioos:station:LUMCON:101:1,2011-01-05T02:00:00Z,29.2533,-90.6633,88.9,1111122 
LUMCON,ioos:station:LUMCON:101:1,2011-01-05T03:00:00Z,29.2533,-90.6633,88.3,1111122 
LUMCON,ioos:station:LUMCON:101:1,2011-01-06T03:00:00Z,29.2533,-90.6633,96.1,1111122 
LUMCON,ioos:station:LUMCON:101:1,2011-01-06T04:00:00Z,29.2533,-90.6633,96.8,1111122 
LUMCON,ioos:station:LUMCON:101:1,2011-01-06T05:00:00Z,29.2533,-90.6633,96.8,1111122 
LUMCON,ioos:station:LUMCON:101:1,2011-01-06T06:00:00Z,29.2533,-90.6633,96.7,1111122 
LUMCON,ioos:station:LUMCON:101:1,2011-01-06T07:00:00Z,29.2533,-90.6633,96.1,1111122 
LUMCON,ioos:station:LUMCON:101:1,2011-01-06T08:00:00Z,29.2533,-90.6633,78.1,1111122 
LUMCON,ioos:station:LUMCON:101:1,2011-01-06T09:00:00Z,29.2533,-90.6633,79.8,1111122 
LUMCON,ioos:station:LUMCON:101:1,2011-01-06T10:00:00Z,29.2533,-90.6633,85.8,1111122 
LUMCON,ioos:station:LUMCON:101:1,2011-01-06T11:00:00Z,29.2533,-90.6633,85.7,1111122 
LUMCON,ioos:station:LUMCON:101:1,2011-01-06T12:00:00Z,29.2533,-90.6633,84.5,1111122 
LUMCON,ioos:station:LUMCON:101:1,2011-01-06T13:00:00Z,29.2533,-90.6633,84.5,1111122 
LUMCON,ioos:station:LUMCON:101:1,2011-01-06T16:00:00Z,29.2533,-90.6633,74.9,1111122 
LUMCON,ioos:station:LUMCON:101:1,2011-01-06T17:00:00Z,29.2533,-90.6633,69.1,1111122 
LUMCON,ioos:station:LUMCON:101:1,2011-01-06T18:00:00Z,29.2533,-90.6633,44.3,1111122 
LUMCON,ioos:station:LUMCON:101:1,2011-01-06T23:00:00Z,29.2533,-90.6633,50.2,1111122 
LUMCON,ioos:station:LUMCON:101:1,2011-01-07T00:00:00Z,29.2533,-90.6633,64.6,1111122 
LUMCON,ioos:station:LUMCON:101:1,2011-01-07T01:00:00Z,29.2533,-90.6633,69.6,1111122 
LUMCON,ioos:station:LUMCON:101:1,2011-01-07T02:00:00Z,29.2533,-90.6633,74.9,1111122 
LUMCON,ioos:station:LUMCON:101:1,2011-01-07T03:00:00Z,29.2533,-90.6633,77.5,1111122 
LUMCON,ioos:station:LUMCON:101:1,2011-01-07T04:00:00Z,29.2533,-90.6633,79.1,1111122 
LUMCON,ioos:station:LUMCON:101:1,2011-01-07T05:00:00Z,29.2533,-90.6633,82.8,1111122 
LUMCON,ioos:station:LUMCON:101:1,2011-01-07T06:00:00Z,29.2533,-90.6633,85.0,1111122 
LUMCON,ioos:station:LUMCON:101:1,2011-01-07T08:00:00Z,29.2533,-90.6633,86.8,1111122 
LUMCON,ioos:station:LUMCON:101:1,2011-01-07T09:00:00Z,29.2533,-90.6633,87.4,1111122 
LUMCON,ioos:station:LUMCON:101:1,2011-01-07T10:00:00Z,29.2533,-90.6633,84.4,1111122 
LUMCON,ioos:station:LUMCON:101:1,2011-01-07T11:00:00Z,29.2533,-90.6633,86.2,1111122 
LUMCON,ioos:station:LUMCON:101:1,2011-01-07T12:00:00Z,29.2533,-90.6633,84.5,1111122 
LUMCON,ioos:station:LUMCON:101:1,2011-01-07T13:00:00Z,29.2533,-90.6633,83.9,1111122 
LUMCON,ioos:station:LUMCON:101:1,2011-01-07T15:00:00Z,29.2533,-90.6633,66.0,1111122 
LUMCON,ioos:station:LUMCON:101:1,2011-01-07T16:00:00Z,29.2533,-90.6633,52.2,1111122 
LUMCON,ioos:station:LUMCON:101:1,2011-01-07T17:00:00Z,29.2533,-90.6633,38.7,1111122 
LUMCON,ioos:station:LUMCON:101:1,2011-01-07T18:00:00Z,29.2533,-90.6633,37.4,1111122 
LUMCON,ioos:station:LUMCON:101:1,2011-01-07T19:00:00Z,29.2533,-90.6633,43.9,1111122 
LUMCON,ioos:station:LUMCON:101:1,2011-01-07T20:00:00Z,29.2533,-90.6633,41.9,1111122 
LUMCON,ioos:station:LUMCON:101:1,2011-01-07T21:00:00Z,29.2533,-90.6633,43.9,1111122 
LUMCON,ioos:station:LUMCON:101:1,2011-01-07T22:00:00Z,29.2533,-90.6633,46.5,1111122 
LUMCON,ioos:station:LUMCON:101:1,2011-01-07T23:00:00Z,29.2533,-90.6633,58.4,1111122 
LUMCON,ioos:station:LUMCON:101:1,2011-01-08T00:00:00Z,29.2533,-90.6633,69.0,1111122 
LUMCON,ioos:station:LUMCON:101:1,2011-01-08T01:00:00Z,29.2533,-90.6633,72.8,1111122 
LUMCON,ioos:station:LUMCON:101:1,2011-01-08T02:00:00Z,29.2533,-90.6633,78.9,1111122 
LUMCON,ioos:station:LUMCON:101:1,2011-01-08T03:00:00Z,29.2533,-90.6633,81.5,1111122 
LUMCON,ioos:station:LUMCON:101:1,2011-01-08T04:00:00Z,29.2533,-90.6633,86.0,1111122 
LUMCON,ioos:station:LUMCON:101:1,2011-01-08T05:00:00Z,29.2533,-90.6633,87.1,1111122 
LUMCON,ioos:station:LUMCON:101:1,2011-01-08T06:00:00Z,29.2533,-90.6633,86.5,1111122 
LUMCON,ioos:station:LUMCON:101:1,2011-01-08T07:00:00Z,29.2533,-90.6633,87.1,1111122 
LUMCON,ioos:station:LUMCON:101:1,2011-01-08T08:00:00Z,29.2533,-90.6633,84.8,1111122 
LUMCON,ioos:station:LUMCON:101:1,2011-01-08T09:00:00Z,29.2533,-90.6633,87.6,1111122 
LUMCON,ioos:station:LUMCON:101:1,2011-01-08T10:00:00Z,29.2533,-90.6633,91.7,1111122 
LUMCON,ioos:station:LUMCON:101:1,2011-01-08T11:00:00Z,29.2533,-90.6633,88.0,1111122 
LUMCON,ioos:station:LUMCON:101:1,2011-01-08T12:00:00Z,29.2533,-90.6633,83.4,1111122 
LUMCON,ioos:station:LUMCON:101:1,2011-01-08T13:00:00Z,29.2533,-90.6633,73.0,1111122 
LUMCON,ioos:station:LUMCON:101:1,2011-01-08T14:00:00Z,29.2533,-90.6633,62.8,1111122 
LUMCON,ioos:station:LUMCON:101:1,2011-01-08T15:00:00Z,29.2533,-90.6633,49.3,1111122 
LUMCON,ioos:station:LUMCON:101:1,2011-01-08T22:00:00Z,29.2533,-90.6633,42.2,1111122 
LUMCON,ioos:station:LUMCON:101:1,2011-01-08T23:00:00Z,29.2533,-90.6633,46.0,1111122 
LUMCON,ioos:station:LUMCON:101:1,2011-01-09T00:00:00Z,29.2533,-90.6633,51.3,1111122 
LUMCON,ioos:station:LUMCON:101:1,2011-01-09T01:00:00Z,29.2533,-90.6633,60.1,1111122 
LUMCON,ioos:station:LUMCON:101:1,2011-01-09T02:00:00Z,29.2533,-90.6633,62.3,1111122 
LUMCON,ioos:station:LUMCON:101:1,2011-01-09T03:00:00Z,29.2533,-90.6633,59.8,1111122 
LUMCON,ioos:station:LUMCON:101:1,2011-01-09T04:00:00Z,29.2533,-90.6633,61.0,1111122 
LUMCON,ioos:station:LUMCON:101:1,2011-01-09T06:00:00Z,29.2533,-90.6633,55.8,1111122 
LUMCON,ioos:station:LUMCON:101:1,2011-01-09T07:00:00Z,29.2533,-90.6633,60.6,1111122 
LUMCON,ioos:station:LUMCON:101:1,2011-01-09T08:00:00Z,29.2533,-90.6633,65.4,1111122 
LUMCON,ioos:station:LUMCON:101:1,2011-01-09T09:00:00Z,29.2533,-90.6633,66.8,1111122 
LUMCON,ioos:station:LUMCON:101:1,2011-01-09T10:00:00Z,29.2533,-90.6633,69.1,1111122 
LUMCON,ioos:station:LUMCON:101:1,2011-01-09T12:00:00Z,29.2533,-90.6633,71.2,1111122 
LUMCON,ioos:station:LUMCON:101:1,2011-01-09T13:00:00Z,29.2533,-90.6633,71.3,1111122 
LUMCON,ioos:station:LUMCON:101:1,2011-01-09T14:00:00Z,29.2533,-90.6633,73.3,1111122 
LUMCON,ioos:station:LUMCON:101:1,2011-01-09T15:00:00Z,29.2533,-90.6633,74.0,1111122 
LUMCON,ioos:station:LUMCON:101:1,2011-01-09T17:00:00Z,29.2533,-90.6633,75.3,1111122 
LUMCON,ioos:station:LUMCON:101:1,2011-01-09T18:00:00Z,29.2533,-90.6633,79.4,1111122 
LUMCON,ioos:station:LUMCON:101:1,2011-01-09T19:00:00Z,29.2533,-90.6633,81.0,1111122 
LUMCON,ioos:station:LUMCON:101:1,2011-01-09T20:00:00Z,29.2533,-90.6633,89.4,1111122 
LUMCON,ioos:station:LUMCON:101:1,2011-01-09T21:00:00Z,29.2533,-90.6633,94.8,1111122 
LUMCON,ioos:station:LUMCON:101:1,2011-01-09T22:00:00Z,29.2533,-90.6633,94.9,1111122 
LUMCON,ioos:station:LUMCON:101:1,2011-01-10T00:00:00Z,29.2533,-90.6633,90.0,1111122 
LUMCON,ioos:station:LUMCON:101:1,2011-01-10T01:00:00Z,29.2533,-90.6633,94.1,1111122 
LUMCON,ioos:station:LUMCON:101:1,2011-01-10T05:00:00Z,29.2533,-90.6633,94.6,1111122 
LUMCON,ioos:station:LUMCON:101:1,2011-01-10T06:00:00Z,29.2533,-90.6633,95.9,1111122 
LUMCON,ioos:station:LUMCON:101:1,2011-01-10T07:00:00Z,29.2533,-90.6633,96.6,1111122 
LUMCON,ioos:station:LUMCON:101:1,2011-01-10T08:00:00Z,29.2533,-90.6633,95.9,1111122 
LUMCON,ioos:station:LUMCON:101:1,2011-01-10T09:00:00Z,29.2533,-90.6633,96.5,1111122 
LUMCON,ioos:station:LUMCON:101:1,2011-01-10T10:00:00Z,29.2533,-90.6633,96.5,1111122 
LUMCON,ioos:station:LUMCON:101:1,2011-01-10T11:00:00Z,29.2533,-90.6633,96.5,1111122 
LUMCON,ioos:station:LUMCON:101:1,2011-01-10T12:00:00Z,29.2533,-90.6633,96.5,1111122 
LUMCON,ioos:station:LUMCON:101:1,2011-01-10T13:00:00Z,29.2533,-90.6633,96.5,1111122 
LUMCON,ioos:station:LUMCON:101:1,2011-01-10T14:00:00Z,29.2533,-90.6633,96.5,1111122 
LUMCON,ioos:station:LUMCON:101:1,2011-01-10T15:00:00Z,29.2533,-90.6633,93.8,1111122 
LUMCON,ioos:station:LUMCON:101:1,2011-01-10T16:00:00Z,29.2533,-90.6633,91.9,1111122 
LUMCON,ioos:station:LUMCON:101:1,2011-01-10T17:00:00Z,29.2533,-90.6633,91.3,1111122 
LUMCON,ioos:station:LUMCON:101:1,2011-01-10T18:00:00Z,29.2533,-90.6633,90.0,1111122 
LUMCON,ioos:station:LUMCON:101:1,2011-01-10T22:00:00Z,29.2533,-90.6633,72.7,1111122 
LUMCON,ioos:station:LUMCON:101:1,2011-01-10T23:00:00Z,29.2533,-90.6633,74.6,1111122 
LUMCON,ioos:station:LUMCON:101:1,2011-01-11T00:00:00Z,29.2533,-90.6633,83.0,1111122 
LUMCON,ioos:station:LUMCON:101:1,2011-01-11T01:00:00Z,29.2533,-90.6633,87.1,1111122 
LUMCON,ioos:station:LUMCON:101:1,2011-01-11T02:00:00Z,29.2533,-90.6633,87.6,1111122 
LUMCON,ioos:station:LUMCON:101:1,2011-01-11T03:00:00Z,29.2533,-90.6633,88.8,1111122 
LUMCON,ioos:station:LUMCON:101:1,2011-01-11T04:00:00Z,29.2533,-90.6633,87.6,1111122 
LUMCON,ioos:station:LUMCON:101:1,2011-01-11T05:00:00Z,29.2533,-90.6633,87.6,1111122 
LUMCON,ioos:station:LUMCON:101:1,2011-01-11T07:00:00Z,29.2533,-90.6633,87.6,1111122 
LUMCON,ioos:station:LUMCON:101:1,2011-01-11T08:00:00Z,29.2533,-90.6633,88.2,1111122 
LUMCON,ioos:station:LUMCON:101:1,2011-01-11T09:00:00Z,29.2533,-90.6633,87.6,1111122 
LUMCON,ioos:station:LUMCON:101:1,2011-01-11T10:00:00Z,29.2533,-90.6633,88.1,1111122 
LUMCON,ioos:station:LUMCON:101:1,2011-01-11T11:00:00Z,29.2533,-90.6633,88.1,1111122 
LUMCON,ioos:station:LUMCON:101:1,2011-01-11T12:00:00Z,29.2533,-90.6633,86.2,1111122 
LUMCON,ioos:station:LUMCON:101:1,2011-01-11T13:00:00Z,29.2533,-90.6633,84.4,1111122 
LUMCON,ioos:station:LUMCON:101:1,2011-01-11T14:00:00Z,29.2533,-90.6633,83.1,1111122 
LUMCON,ioos:station:LUMCON:101:1,2011-01-11T15:00:00Z,29.2533,-90.6633,86.1,1111122 
LUMCON,ioos:station:LUMCON:101:1,2011-01-11T19:00:00Z,29.2533,-90.6633,66.9,1111122 
LUMCON,ioos:station:LUMCON:101:1,2011-01-11T20:00:00Z,29.2533,-90.6633,63.3,1111122 
LUMCON,ioos:station:LUMCON:101:1,2011-01-11T21:00:00Z,29.2533,-90.6633,61.2,1111122 
LUMCON,ioos:station:LUMCON:101:1,2011-01-11T23:00:00Z,29.2533,-90.6633,58.3,1111122 
LUMCON,ioos:station:LUMCON:101:1,2011-01-14T16:00:00Z,29.2533,-90.6633,68.4,1111122 
LUMCON,ioos:station:LUMCON:101:1,2011-01-14T22:00:00Z,29.2533,-90.6633,57.2,1111122 
LUMCON,ioos:station:LUMCON:101:1,2011-01-14T23:00:00Z,29.2533,-90.6633,61.4,1111122 
LUMCON,ioos:station:LUMCON:101:1,2011-01-15T00:00:00Z,29.2533,-90.6633,69.9,1111122 
LUMCON,ioos:station:LUMCON:101:1,2011-01-15T01:00:00Z,29.2533,-90.6633,70.9,1111122 
LUMCON,ioos:station:LUMCON:101:1,2011-01-15T02:00:00Z,29.2533,-90.6633,65.5,1111122 
LUMCON,ioos:station:LUMCON:101:1,2011-01-15T06:00:00Z,29.2533,-90.6633,67.2,1111122 
LUMCON,ioos:station:LUMCON:101:1,2011-01-15T07:00:00Z,29.2533,-90.6633,70.7,1111122 
LUMCON,ioos:station:LUMCON:101:1,2011-01-15T08:00:00Z,29.2533,-90.6633,69.6,1111122 
LUMCON,ioos:station:LUMCON:101:1,2011-01-15T09:00:00Z,29.2533,-90.6633,71.7,1111122 
LUMCON,ioos:station:LUMCON:101:1,2011-01-15T12:00:00Z,29.2533,-90.6633,76.0,1111122 
LUMCON,ioos:station:LUMCON:101:1,2011-01-15T13:00:00Z,29.2533,-90.6633,79.2,1111122 
LUMCON,ioos:station:LUMCON:101:1,2011-01-15T14:00:00Z,29.2533,-90.6633,71.4,1111122 
LUMCON,ioos:station:LUMCON:101:1,2011-01-15T15:00:00Z,29.2533,-90.6633,65.2,1111122 
LUMCON,ioos:station:LUMCON:101:1,2011-01-15T16:00:00Z,29.2533,-90.6633,59.9,1111122 
LUMCON,ioos:station:LUMCON:101:1,2011-01-15T17:00:00Z,29.2533,-90.6633,58.4,1111122 
LUMCON,ioos:station:LUMCON:101:1,2011-01-15T18:00:00Z,29.2533,-90.6633,57.1,1111122 
LUMCON,ioos:station:LUMCON:101:1,2011-01-15T19:00:00Z,29.2533,-90.6633,56.6,1111122 
LUMCON,ioos:station:LUMCON:101:1,2011-01-15T20:00:00Z,29.2533,-90.6633,56.9,1111122 
LUMCON,ioos:station:LUMCON:101:1,2011-01-15T21:00:00Z,29.2533,-90.6633,59.6,1111122 
LUMCON,ioos:station:LUMCON:101:1,2011-01-15T23:00:00Z,29.2533,-90.6633,71.8,1111122 
LUMCON,ioos:station:LUMCON:101:1,2011-01-16T00:00:00Z,29.2533,-90.6633,80.5,1111122 
LUMCON,ioos:station:LUMCON:101:1,2011-01-16T01:00:00Z,29.2533,-90.6633,83.2,1111122 
LUMCON,ioos:station:LUMCON:101:1,2011-01-16T02:00:00Z,29.2533,-90.6633,83.2,1111122 
LUMCON,ioos:station:LUMCON:101:1,2011-01-16T03:00:00Z,29.2533,-90.6633,83.2,1111122 
LUMCON,ioos:station:LUMCON:101:1,2011-01-16T04:00:00Z,29.2533,-90.6633,86.1,1111122 
LUMCON,ioos:station:LUMCON:101:1,2011-01-16T05:00:00Z,29.2533,-90.6633,83.8,1111122 
LUMCON,ioos:station:LUMCON:101:1,2011-01-16T06:00:00Z,29.2533,-90.6633,82.7,1111122 
LUMCON,ioos:station:LUMCON:101:1,2011-01-16T07:00:00Z,29.2533,-90.6633,80.5,1111122 
LUMCON,ioos:station:LUMCON:101:1,2011-01-16T08:00:00Z,29.2533,-90.6633,78.3,1111122 
LUMCON,ioos:station:LUMCON:101:1,2011-01-16T10:00:00Z,29.2533,-90.6633,77.1,1111122 
LUMCON,ioos:station:LUMCON:101:1,2011-01-16T11:00:00Z,29.2533,-90.6633,78.1,1111122 
LUMCON,ioos:station:LUMCON:101:1,2011-01-16T12:00:00Z,29.2533,-90.6633,81.4,1111122 
LUMCON,ioos:station:LUMCON:101:1,2011-01-16T13:00:00Z,29.2533,-90.6633,84.2,1111122 
LUMCON,ioos:station:LUMCON:101:1,2011-01-16T14:00:00Z,29.2533,-90.6633,79.3,1111122 
LUMCON,ioos:station:LUMCON:101:1,2011-01-16T16:00:00Z,29.2533,-90.6633,62.2,1111122 
LUMCON,ioos:station:LUMCON:101:1,2011-01-16T17:00:00Z,29.2533,-90.6633,65.8,1111122 
LUMCON,ioos:station:LUMCON:101:1,2011-01-16T18:00:00Z,29.2533,-90.6633,61.2,1111122 
LUMCON,ioos:station:LUMCON:101:1,2011-01-16T19:00:00Z,29.2533,-90.6633,57.4,1111122 
LUMCON,ioos:station:LUMCON:101:1,2011-01-16T20:00:00Z,29.2533,-90.6633,55.9,1111122 
LUMCON,ioos:station:LUMCON:101:1,2011-01-16T21:00:00Z,29.2533,-90.6633,60.2,1111122 
LUMCON,ioos:station:LUMCON:101:1,2011-01-16T23:00:00Z,29.2533,-90.6633,66.4,1111122 
LUMCON,ioos:station:LUMCON:101:1,2011-01-17T00:00:00Z,29.2533,-90.6633,70.5,1111122 
LUMCON,ioos:station:LUMCON:101:1,2011-01-17T02:00:00Z,29.2533,-90.6633,76.9,1111122 
LUMCON,ioos:station:LUMCON:101:1,2011-01-17T03:00:00Z,29.2533,-90.6633,79.5,1111122 
LUMCON,ioos:station:LUMCON:101:1,2011-01-17T05:00:00Z,29.2533,-90.6633,80.6,1111122 
LUMCON,ioos:station:LUMCON:101:1,2011-01-17T06:00:00Z,29.2533,-90.6633,80.6,1111122 
LUMCON,ioos:station:LUMCON:101:1,2011-01-17T07:00:00Z,29.2533,-90.6633,75.8,1111122 
LUMCON,ioos:station:LUMCON:101:1,2011-01-17T08:00:00Z,29.2533,-90.6633,77.9,1111122 
LUMCON,ioos:station:LUMCON:101:1,2011-01-17T09:00:00Z,29.2533,-90.6633,81.1,1111122 
LUMCON,ioos:station:LUMCON:101:1,2011-01-17T11:00:00Z,29.2533,-90.6633,84.4,1111122 
LUMCON,ioos:station:LUMCON:101:1,2011-01-17T12:00:00Z,29.2533,-90.6633,85.0,1111122 
LUMCON,ioos:station:LUMCON:101:1,2011-01-17T13:00:00Z,29.2533,-90.6633,83.3,1111122 
LUMCON,ioos:station:LUMCON:101:1,2011-01-17T14:00:00Z,29.2533,-90.6633,76.3,1111122 
LUMCON,ioos:station:LUMCON:101:1,2011-01-17T15:00:00Z,29.2533,-90.6633,76.3,1111122 
LUMCON,ioos:station:LUMCON:101:1,2011-01-17T16:00:00Z,29.2533,-90.6633,73.0,1111122 
LUMCON,ioos:station:LUMCON:101:1,2011-01-17T17:00:00Z,29.2533,-90.6633,68.8,1111122 
LUMCON,ioos:station:LUMCON:101:1,2011-01-17T18:00:00Z,29.2533,-90.6633,65.9,1111122 
LUMCON,ioos:station:LUMCON:101:1,2011-01-17T19:00:00Z,29.2533,-90.6633,65.1,1111122 
LUMCON,ioos:station:LUMCON:101:1,2011-01-17T20:00:00Z,29.2533,-90.6633,65.6,1111122 
LUMCON,ioos:station:LUMCON:101:1,2011-01-17T21:00:00Z,29.2533,-90.6633,69.7,1111122 
LUMCON,ioos:station:LUMCON:101:1,2011-01-17T22:00:00Z,29.2533,-90.6633,75.4,1111122 
LUMCON,ioos:station:LUMCON:101:1,2011-01-17T23:00:00Z,29.2533,-90.6633,80.0,1111122 
LUMCON,ioos:station:LUMCON:101:1,2011-01-18T00:00:00Z,29.2533,-90.6633,83.7,1111122 
LUMCON,ioos:station:LUMCON:101:1,2011-01-18T01:00:00Z,29.2533,-90.6633,87.1,1111122 
LUMCON,ioos:station:LUMCON:101:1,2011-01-18T20:00:00Z,29.2533,-90.6633,84.8,1111122 
LUMCON,ioos:station:LUMCON:101:1,2011-01-19T02:00:00Z,29.2533,-90.6633,86.6,1111122 
LUMCON,ioos:station:LUMCON:101:1,2011-01-19T03:00:00Z,29.2533,-90.6633,86.0,1111122 
LUMCON,ioos:station:LUMCON:101:1,2011-01-19T04:00:00Z,29.2533,-90.6633,88.3,1111122 
LUMCON,ioos:station:LUMCON:101:1,2011-01-19T05:00:00Z,29.2533,-90.6633,85.9,1111122 
LUMCON,ioos:station:LUMCON:101:1,2011-01-19T06:00:00Z,29.2533,-90.6633,85.9,1111122 
LUMCON,ioos:station:LUMCON:101:1,2011-01-19T07:00:00Z,29.2533,-90.6633,80.3,1111122 
LUMCON,ioos:station:LUMCON:101:1,2011-01-19T08:00:00Z,29.2533,-90.6633,80.3,1111122 
LUMCON,ioos:station:LUMCON:101:1,2011-01-19T09:00:00Z,29.2533,-90.6633,79.7,1111122 
LUMCON,ioos:station:LUMCON:101:1,2011-01-19T10:00:00Z,29.2533,-90.6633,81.2,1111122 
LUMCON,ioos:station:LUMCON:101:1,2011-01-19T11:00:00Z,29.2533,-90.6633,83.9,1111122 
LUMCON,ioos:station:LUMCON:101:1,2011-01-19T12:00:00Z,29.2533,-90.6633,82.3,1111122 
LUMCON,ioos:station:LUMCON:101:1,2011-01-19T13:00:00Z,29.2533,-90.6633,85.6,1111122 
LUMCON,ioos:station:LUMCON:101:1,2011-01-19T14:00:00Z,29.2533,-90.6633,80.1,1111122 
LUMCON,ioos:station:LUMCON:101:1,2011-01-19T17:00:00Z,29.2533,-90.6633,66.0,1111122 
LUMCON,ioos:station:LUMCON:101:1,2011-01-19T18:00:00Z,29.2533,-90.6633,65.3,1111122 
LUMCON,ioos:station:LUMCON:101:1,2011-01-19T19:00:00Z,29.2533,-90.6633,62.7,1111122 
LUMCON,ioos:station:LUMCON:101:1,2011-01-19T20:00:00Z,29.2533,-90.6633,66.6,1111122 
LUMCON,ioos:station:LUMCON:101:1,2011-01-19T21:00:00Z,29.2533,-90.6633,72.2,1111122 
LUMCON,ioos:station:LUMCON:101:1,2011-01-19T22:00:00Z,29.2533,-90.6633,71.2,1111122 
LUMCON,ioos:station:LUMCON:101:1,2011-01-19T23:00:00Z,29.2533,-90.6633,74.0,1111122 
LUMCON,ioos:station:LUMCON:101:1,2011-01-20T00:00:00Z,29.2533,-90.6633,78.0,1111122 
LUMCON,ioos:station:LUMCON:101:1,2011-01-20T01:00:00Z,29.2533,-90.6633,79.0,1111122 
LUMCON,ioos:station:LUMCON:101:1,2011-01-20T02:00:00Z,29.2533,-90.6633,80.7,1111122 
LUMCON,ioos:station:LUMCON:101:1,2011-01-20T03:00:00Z,29.2533,-90.6633,82.3,1111122 
LUMCON,ioos:station:LUMCON:101:1,2011-01-20T04:00:00Z,29.2533,-90.6633,84.1,1111122 
LUMCON,ioos:station:LUMCON:101:1,2011-01-20T05:00:00Z,29.2533,-90.6633,79.2,1111122 
LUMCON,ioos:station:LUMCON:101:1,2011-01-20T06:00:00Z,29.2533,-90.6633,84.6,1111122 
LUMCON,ioos:station:LUMCON:101:1,2011-01-20T07:00:00Z,29.2533,-90.6633,86.9,1111122 
LUMCON,ioos:station:LUMCON:101:1,2011-01-20T08:00:00Z,29.2533,-90.6633,89.3,1111122 
LUMCON,ioos:station:LUMCON:101:1,2011-01-20T09:00:00Z,29.2533,-90.6633,90.5,1111122 
LUMCON,ioos:station:LUMCON:101:1,2011-01-20T10:00:00Z,29.2533,-90.6633,91.7,1111122 
LUMCON,ioos:station:LUMCON:101:1,2011-01-20T12:00:00Z,29.2533,-90.6633,92.3,1111122 
LUMCON,ioos:station:LUMCON:101:1,2011-01-20T13:00:00Z,29.2533,-90.6633,92.3,1111122 
LUMCON,ioos:station:LUMCON:101:1,2011-01-20T14:00:00Z,29.2533,-90.6633,91.7,1111122 
LUMCON,ioos:station:LUMCON:101:1,2011-01-20T15:00:00Z,29.2533,-90.6633,90.0,1111122 
LUMCON,ioos:station:LUMCON:101:1,2011-01-20T16:00:00Z,29.2533,-90.6633,86.0,1111122 
LUMCON,ioos:station:LUMCON:101:1,2011-01-20T17:00:00Z,29.2533,-90.6633,83.2,1111122 
LUMCON,ioos:station:LUMCON:101:1,2011-01-20T18:00:00Z,29.2533,-90.6633,79.2,1111122 
LUMCON,ioos:station:LUMCON:101:1,2011-01-21T03:00:00Z,29.2533,-90.6633,84.9,1111122 
LUMCON,ioos:station:LUMCON:101:1,2011-01-21T04:00:00Z,29.2533,-90.6633,85.9,1111122 
LUMCON,ioos:station:LUMCON:101:1,2011-01-21T05:00:00Z,29.2533,-90.6633,88.1,1111122 
LUMCON,ioos:station:LUMCON:101:1,2011-01-21T06:00:00Z,29.2533,-90.6633,84.4,1111122 
LUMCON,ioos:station:LUMCON:101:1,2011-01-21T07:00:00Z,29.2533,-90.6633,82.0,1111122 
LUMCON,ioos:station:LUMCON:101:1,2011-01-21T08:00:00Z,29.2533,-90.6633,80.7,1111122 
LUMCON,ioos:station:LUMCON:101:1,2011-01-21T09:00:00Z,29.2533,-90.6633,81.2,1111122 
LUMCON,ioos:station:LUMCON:101:1,2011-01-21T10:00:00Z,29.2533,-90.6633,81.7,1111122 
LUMCON,ioos:station:LUMCON:101:1,2011-01-21T11:00:00Z,29.2533,-90.6633,81.0,1111122 
LUMCON,ioos:station:LUMCON:101:1,2011-01-21T12:00:00Z,29.2533,-90.6633,82.0,1111122 
LUMCON,ioos:station:LUMCON:101:1,2011-01-21T13:00:00Z,29.2533,-90.6633,82.5,1111122 
LUMCON,ioos:station:LUMCON:101:1,2011-01-21T14:00:00Z,29.2533,-90.6633,80.6,1111122 
LUMCON,ioos:station:LUMCON:101:1,2011-01-21T15:00:00Z,29.2533,-90.6633,80.1,1111122 
LUMCON,ioos:station:LUMCON:101:1,2011-01-21T21:00:00Z,29.2533,-90.6633,58.5,1111122 
LUMCON,ioos:station:LUMCON:101:1,2011-01-21T22:00:00Z,29.2533,-90.6633,58.2,1111122 
LUMCON,ioos:station:LUMCON:101:1,2011-01-21T23:00:00Z,29.2533,-90.6633,57.1,1111122 
LUMCON,ioos:station:LUMCON:101:1,2011-01-22T00:00:00Z,29.2533,-90.6633,63.8,1111122 
LUMCON,ioos:station:LUMCON:101:1,2011-01-22T05:00:00Z,29.2533,-90.6633,68.7,1111122 
LUMCON,ioos:station:LUMCON:101:1,2011-01-23T05:00:00Z,29.2533,-90.6633,60.0,1111122 
LUMCON,ioos:station:LUMCON:101:1,2011-01-23T06:00:00Z,29.2533,-90.6633,59.6,1111122 
LUMCON,ioos:station:LUMCON:101:1,2011-01-23T07:00:00Z,29.2533,-90.6633,58.3,1111122 
LUMCON,ioos:station:LUMCON:101:1,2011-01-23T08:00:00Z,29.2533,-90.6633,63.0,1111122 
LUMCON,ioos:station:LUMCON:101:1,2011-01-23T09:00:00Z,29.2533,-90.6633,73.9,1111122 
LUMCON,ioos:station:LUMCON:101:1,2011-01-23T10:00:00Z,29.2533,-90.6633,72.9,1111122 
LUMCON,ioos:station:LUMCON:101:1,2011-01-23T11:00:00Z,29.2533,-90.6633,80.5,1111122 
LUMCON,ioos:station:LUMCON:101:1,2011-01-23T12:00:00Z,29.2533,-90.6633,75.6,1111122 
LUMCON,ioos:station:LUMCON:101:1,2011-01-23T13:00:00Z,29.2533,-90.6633,69.3,1111122 
LUMCON,ioos:station:LUMCON:101:1,2011-01-23T14:00:00Z,29.2533,-90.6633,59.0,1111122 
LUMCON,ioos:station:LUMCON:101:1,2011-01-23T15:00:00Z,29.2533,-90.6633,59.3,1111122 
LUMCON,ioos:station:LUMCON:101:1,2011-01-23T16:00:00Z,29.2533,-90.6633,66.3,1111122 
LUMCON,ioos:station:LUMCON:101:1,2011-01-23T17:00:00Z,29.2533,-90.6633,61.6,1111122 
LUMCON,ioos:station:LUMCON:101:1,2011-01-23T18:00:00Z,29.2533,-90.6633,59.4,1111122 
LUMCON,ioos:station:LUMCON:101:1,2011-01-23T19:00:00Z,29.2533,-90.6633,57.5,1111122 
LUMCON,ioos:station:LUMCON:101:1,2011-01-23T21:00:00Z,29.2533,-90.6633,57.3,1111122 
LUMCON,ioos:station:LUMCON:101:1,2011-01-23T22:00:00Z,29.2533,-90.6633,60.5,1111122 
LUMCON,ioos:station:LUMCON:101:1,2011-01-23T23:00:00Z,29.2533,-90.6633,66.4,1111122 
LUMCON,ioos:station:LUMCON:101:1,2011-01-24T00:00:00Z,29.2533,-90.6633,70.0,1111122 